Location: Newark
(40.3500°N, 15.2333°E)
Time: 05:41:28
(UTC+00:00)

Tiros 1 - All Passes

Search period start: 18 January 2020 00:00
Search period end: 28 January 2020 00:00
Orbit: 630 x 664 km, 48.4° (Epoch: 17 January)

Date Brightness Start Highest point End Pass type
(mag) Time Alt. Az. Time Alt. Az. Time Alt. Az.
18 Jan - 13:03:48 10° SSW 13:07:47 28° SE 13:11:49 10° ENE daylight
18 Jan - 14:45:00 10° WSW 14:49:43 68° NNW 14:54:30 10° ENE daylight
18 Jan - 16:28:12 10° WNW 16:32:30 32° N 16:36:51 10° ENE visible
18 Jan - 18:11:07 10° NW 18:15:35 37° NNE 18:20:04 10° E visible
18 Jan - 19:53:20 10° WNW 19:58:10 83° SW 20:02:59 10° SE visible
18 Jan - 21:36:42 10° W 21:39:51 17° SW 21:42:58 10° S night (unlit)
19 Jan - 11:51:02 10° SE 11:52:11 11° SE 11:53:19 10° ESE daylight
19 Jan - 13:28:59 10° SW 13:33:36 60° SE 13:38:19 10° ENE daylight
19 Jan - 15:11:28 10° W 15:15:59 43° NNW 15:20:34 10° NE daylight
19 Jan - 16:54:45 10° WNW 16:59:00 31° N 17:03:18 10° ENE visible
19 Jan - 18:37:13 10° NW 18:41:56 53° NNE 18:46:39 10° E visible
19 Jan - 20:19:35 10° WNW 20:24:06 41° SW 20:28:36 10° SSE visible
20 Jan - 12:13:55 10° S 12:17:46 26° SE 12:21:40 10° E daylight
20 Jan - 13:54:57 10° WSW 13:59:39 72° NNW 14:04:26 10° ENE daylight
20 Jan - 15:38:06 10° WNW 15:42:24 33° N 15:46:45 10° ENE daylight
20 Jan - 17:21:04 10° NW 17:25:29 36° NNE 17:29:56 10° E visible
20 Jan - 19:03:16 10° WNW 19:08:06 88° SSW 19:12:55 10° ESE visible
20 Jan - 20:46:29 10° W 20:49:50 19° SW 20:53:10 10° S night (unlit)
21 Jan - 12:38:59 10° SW 12:43:34 55° SE 12:48:13 10° ENE daylight
21 Jan - 14:21:22 10° W 14:25:54 44° NNW 14:30:29 10° NE daylight
21 Jan - 16:04:40 10° WNW 16:08:54 31° N 16:13:10 10° ENE daylight
21 Jan - 17:47:10 10° NW 17:51:51 51° NNE 17:56:32 10° E visible
21 Jan - 19:29:29 10° WNW 19:34:04 44° SW 19:38:37 10° SSE visible
22 Jan - 11:24:03 10° S 11:27:45 23° SE 11:31:30 10° E daylight
22 Jan - 13:04:53 10° WSW 13:09:35 77° NNW 13:14:22 10° ENE daylight
22 Jan - 14:48:00 10° WNW 14:52:18 33° N 14:56:39 10° NE daylight
22 Jan - 16:31:00 10° NW 16:35:23 35° NNE 16:39:48 10° ENE visible
22 Jan - 18:13:13 10° WNW 18:18:02 86° NNE 18:22:51 10° ESE visible
22 Jan - 19:56:16 10° W 19:59:48 21° SW 20:03:20 10° S visible
23 Jan - 11:49:01 10° SW 11:53:32 51° SE 11:58:07 10° ENE daylight
23 Jan - 13:31:16 10° W 13:35:49 46° NNW 13:40:25 10° NE daylight
23 Jan - 15:14:34 10° WNW 15:18:48 31° N 15:23:03 10° ENE daylight
23 Jan - 16:57:07 10° NW 17:01:45 48° NNE 17:06:25 10° E visible
23 Jan - 18:39:24 10° WNW 18:44:01 48° SW 18:48:38 10° SE visible
24 Jan - 10:34:13 10° S 10:37:45 21° SE 10:41:19 10° E daylight
24 Jan - 12:14:50 10° WSW 12:19:32 81° NNW 12:24:17 10° ENE daylight
24 Jan - 13:57:54 10° WNW 14:02:12 34° N 14:06:33 10° NE daylight
24 Jan - 15:40:56 10° NW 15:45:17 34° N 15:49:40 10° ENE daylight
24 Jan - 17:23:10 10° WNW 17:27:58 81° NNE 17:32:47 10° ESE visible
24 Jan - 19:06:05 10° W 19:09:48 22° SW 19:13:29 10° S visible
25 Jan - 10:59:02 10° SW 11:03:30 47° SE 11:08:01 10° ENE daylight
25 Jan - 12:41:11 10° W 12:45:44 48° NNW 12:50:21 10° NE daylight
25 Jan - 14:24:29 10° WNW 14:28:42 30° N 14:32:56 10° ENE daylight
25 Jan - 16:07:04 10° NW 16:11:40 46° NNE 16:16:18 10° E daylight
25 Jan - 17:49:20 10° WNW 17:53:58 52° SW 17:58:38 10° SE visible
26 Jan - 09:44:24 10° S 09:47:44 20° SE 09:51:07 10° E daylight
26 Jan - 11:24:47 10° WSW 11:29:28 87° NNW 11:34:13 10° ENE daylight
26 Jan - 13:07:48 10° WNW 13:12:06 34° N 13:16:28 10° NE daylight
26 Jan - 14:50:52 10° NW 14:55:11 33° N 14:59:32 10° ENE daylight
26 Jan - 16:33:07 10° WNW 16:37:54 77° NNE 16:42:42 10° ESE visible
26 Jan - 18:15:55 10° W 18:19:46 24° SW 18:23:36 10° S visible
27 Jan - 10:09:05 10° SSW 10:13:28 43° SE 10:17:55 10° ENE daylight
27 Jan - 11:51:06 10° W 11:55:39 50° NNW 12:00:17 10° NE daylight
27 Jan - 13:34:24 10° WNW 13:38:35 30° N 13:42:49 10° ENE daylight
27 Jan - 15:17:01 10° NW 15:21:36 44° NNE 15:26:10 10° E daylight
27 Jan - 16:59:15 10° WNW 17:03:55 56° SW 17:08:37 10° SE visible
27 Jan - 18:45:02 10° SW 18:45:21 10° SW 18:45:41 10° SW visible
